User: anonymous   Login
Location: *
(53.9002°N, 27.5624°E)
Time: 01:42:36
(UTC+00:00)
Language:

Cosmos 1891 Rocket - Orbit

View from above orbital plane
View from above orbital plane
View from above satellite
View from above satellite

Ground track
Ground track

The orbit data is extracted from the following two-line orbital elements,

1 18403U 87087B   20021.29706800  .00000003  00000-0 -12889-4 0  9999
2 18403  82.9190 105.8642 0058585  52.7614 307.8867 13.76537602620714
Epoch (UTC): 21 January 2020 07:07:46
Eccentricity: 0.0058585
inclination: 82.9190°
perigee height: 933 km
apogee height: 1019 km
right ascension of ascending node: 105.8642°
argument of perigee: 52.7614°
revolutions per day: 13.76537602
mean anomaly at epoch: 307.8867°
orbit number at epoch: 62071

The dashed part of the orbit path shows where the satellite is in the earth's shadow,  

DLR